TimeEST,TemperatureF,Dew PointF,Humidity,Sea Level PressureIn,VisibilityMPH,Wind Direction,Wind SpeedMPH,Gust SpeedMPH,PrecipitationIn,Events,Conditions,WindDirDegrees,DateUTC
12:53 AM,71.1,66.9,87,30.06,10.0,Calm,Calm,-,N/A,,Mostly Cloudy,0,2013-01-03 05:53:00
1:53 AM,70.0,66.9,90,30.06,10.0,NNW,4.6,-,N/A,,Mostly Cloudy,330,2013-01-03 06:53:00
2:53 AM,-9999,-9999,N/A,30.05,10.0,Calm,Calm,-,N/A,,Mostly Cloudy,0,2013-01-03 07:53:00
3:53 AM,66.0,66.0,100,30.06,10.0,Calm,Calm,-,N/A,,Mostly Cloudy,0,2013-01-03 08:53:00
4:17 AM,-9999,-9999,N/A,30.06,10.0,Calm,Calm,-,N/A,,Mostly Cloudy,0,2013-01-03 09:17:00
4:39 AM,-9999,-9999,N/A,30.06,10.0,Calm,Calm,-,N/A,,Mostly Cloudy,0,2013-01-03 09:39:00
4:53 AM,-9999,-9999,N/A,30.07,10.0,Calm,Calm,-,N/A,,Mostly Cloudy,0,2013-01-03 09:53:00
5:53 AM,64.0,64.0,100,30.08,10.0,Calm,Calm,-,N/A,,Overcast,0,2013-01-03 10:53:00
6:53 AM,64.0,64.0,100,30.09,10.0,Calm,Calm,-,N/A,,Overcast,0,2013-01-03 11:53:00
7:53 AM,64.0,64.0,100,30.11,10.0,Calm,Calm,-,N/A,,Scattered Clouds,0,2013-01-03 12:53:00
8:53 AM,69.1,66.9,93,30.12,10.0,East,3.5,-,N/A,,Partly Cloudy,90,2013-01-03 13:53:00
9:53 AM,75.9,66.9,74,30.13,10.0,South,4.6,-,N/A,,Clear,170,2013-01-03 14:53:00
10:53 AM,79.0,64.9,62,30.12,10.0,South,10.4,18.4,N/A,,Mostly Cloudy,180,2013-01-03 15:53:00
11:53 AM,81.0,63.0,54,30.10,10.0,South,11.5,-,N/A,,Scattered Clouds,170,2013-01-03 16:53:00
12:53 PM,82.9,62.1,49,30.07,10.0,SSE,10.4,-,N/A,,Mostly Cloudy,160,2013-01-03 17:53:00
1:53 PM,82.0,62.1,51,30.05,10.0,South,10.4,18.4,N/A,,Scattered Clouds,180,2013-01-03 18:53:00
2:53 PM,82.9,61.0,47,30.05,10.0,South,10.4,-,N/A,,Scattered Clouds,180,2013-01-03 19:53:00
3:53 PM,81.0,62.1,52,30.06,10.0,South,11.5,-,N/A,,Clear,170,2013-01-03 20:53:00
4:53 PM,80.1,61.0,52,30.07,10.0,South,10.4,-,N/A,,Clear,170,2013-01-03 21:53:00
5:53 PM,75.9,64.0,67,30.09,10.0,SSE,9.2,-,N/A,,Clear,160,2013-01-03 22:53:00
6:53 PM,73.9,64.9,73,30.11,10.0,SSE,5.8,-,N/A,,Clear,160,2013-01-03 23:53:00
7:53 PM,73.0,66.0,79,30.13,10.0,SSE,6.9,-,N/A,,Clear,160,2013-01-04 00:53:00
8:53 PM,72.0,66.0,81,30.14,10.0,South,4.6,-,N/A,,Clear,170,2013-01-04 01:53:00
9:53 PM,73.0,66.9,81,30.15,10.0,Calm,Calm,-,N/A,,Overcast,0,2013-01-04 02:53:00
10:53 PM,70.0,66.0,87,30.14,10.0,South,4.6,-,N/A,,Clear,170,2013-01-04 03:53:00
11:53 PM,-9999,-9999,N/A,30.15,10.0,Calm,Calm,-,N/A,,Clear,0,2013-01-04 04:53:00